This is the latest recevied weather packets stored in our database for station/object K2MRS. If no packets are shown the sender has not sent any weather packets the latest 1 day(s).
| Time | Temp. | Humidity | Pressure | Rain* | Wind** | Luminosity | Snow |
|---|---|---|---|---|---|---|---|
| 1778034467 | 13.89° C | 79% | 1017 hPa | 0 mm | - | 23 W/m² | - |
| 1778034167 | 13.89° C | 79% | 1016.9 hPa | 0 mm | - | 26 W/m² | - |
| 1778033865 | 13.89° C | 78% | 1016.9 hPa | 0 mm | - | 30 W/m² | - |
| 1778033263 | 14.44° C | 78% | 1016.7 hPa | 0 mm | - | 39 W/m² | - |
| 1778032661 | 14.44° C | 77% | 1016.6 hPa | 0 mm | - | 62 W/m² | - |
| 1778032487 | 14.44° C | 77% | 1016.4 hPa | 0 mm | - | 70 W/m² | - |
| 1778032190 | 14.44° C | 77% | 1016.4 hPa | 0 mm | - | 74 W/m² | - |
| 1778031888 | 14.44° C | 77% | 1016.4 hPa | 0 mm | - | 83 W/m² | - |
| 1778031159 | 14.44° C | 77% | 1016.4 hPa | 0 mm | - | 97 W/m² | - |
| 1778030987 | 14.44° C | 78% | 1016.3 hPa | 0 mm | - | 104 W/m² | - |
| 1778030557 | 14.44° C | 78% | 1016.4 hPa | 0 mm | - | 121 W/m² | - |
| 1778030086 | 14.44° C | 78% | 1016.4 hPa | 0 mm | - | 127 W/m² | - |
| 1778029783 | 14.44° C | 77% | 1016.6 hPa | 0 mm | - | 134 W/m² | - |
| 1778029355 | 15° C | 77% | 1016.6 hPa | 0 mm | - | 139 W/m² | - |
| 1778029055 | 15° C | 78% | 1016.4 hPa | 0 mm | - | 146 W/m² | - |
| 1778028755 | 15° C | 79% | 1016.3 hPa | 0 mm | - | 137 W/m² | - |
| 1778028454 | 15° C | 79% | 1016.4 hPa | 0 mm | - | 139 W/m² | - |
| 1778027843 | 15° C | 78% | 1016.4 hPa | 0 mm | - | 142 W/m² | - |
| 1778027236 | 15° C | 79% | 1016.4 hPa | 0 mm | - | 160 W/m² | - |
| 1778026937 | 15° C | 78% | 1016.4 hPa | 0 mm | - | 167 W/m² | - |
| 1778026334 | 15° C | 78% | 1016.2 hPa | 0 mm | - | 192 W/m² | - |
| 1778025433 | 15.56° C | 79% | 1016.2 hPa | 0 mm | - | 244 W/m² | - |
* Rain latest hour (hover to see other rain measurements)
** Current wind speed in m/s (hover to see current wind gust speed)